#timestamp,LO_Frequency,Hit,StdDev 
1646013615.4,286047001.1,N
1646013635.2,286046999.1,N
1646013655.1,286046999.0,N
1646013656.0,286046999.0,N
1646013675.8,286046998.3,N
1646013695.7,286046998.6,N
1646013715.5,286046998.3,N
1646013735.3,286046999.8,N
1646013755.2,286046999.8,N
1646013775.0,286046999.7,N
1646013775.9,286046999.7,N
1646013795.8,286047000.4,N
1646013815.6,286047000.4,N
1646013835.4,286047000.0,N
1646013855.3,286047000.5,N
1646013875.1,286046999.7,N
1646013895.9,286047000.3,N
1646013915.7,286046998.4,N
1646013935.5,286046999.9,N
1646013955.4,286047000.3,N
1646013975.2,286046999.8,N
1646013995.0,286047001.0,N
1646013995.9,286047001.0,N
1646014015.8,286047001.7,N
1646014035.6,286047000.2,N
1646014055.5,286047000.6,N
1646014075.3,286046999.7,N
1646014095.1,286047002.1,N
1646014115.9,286047002.5,N
1646014135.7,286047002.7,N
1646014155.5,286047001.8,N
1646014175.4,286047002.2,N
1646014195.2,286047002.8,N
1646014215.1,286047001.8,N
1646014216.0,286047001.8,N
1646014235.8,286047001.7,N
1646014255.6,286047000.4,N
1646014275.5,286047000.0,N
1646014295.3,286047000.1,N
1646014315.1,286047000.1,N
1646014335.9,286046999.9,N
1646014355.7,286047002.0,N
1646014375.6,286047002.8,N
1646014395.4,286047000.6,N
1646014415.2,286047001.0,N
1646014435.1,286047001.2,N
1646014436.0,286047001.2,N
1646014455.8,286047000.4,N
1646014475.6,286047002.2,N
1646014495.5,286046998.3,N
1646014515.3,286046998.8,N
1646014535.2,286047000.8,N
1646014555.9,286046999.0,N
1646014575.7,286047001.0,N
1646014595.6,286046999.8,N
1646014615.4,286047000.6,N
1646014635.2,286047000.6,N
1646014655.1,286047000.6,N
1646014656.0,286047000.6,N
1646014675.8,286047001.2,N
1646014695.7,286047000.6,N
1646014715.5,286046998.1,N
1646014735.3,286046999.0,N
1646014755.2,286046999.1,N
1646014775.0,286046998.2,N
1646014775.9,286046998.2,N
1646014795.8,286046998.4,N
1646014815.6,286046998.6,N
1646014835.4,286046998.8,N
1646014855.3,286046998.6,N
1646014875.1,286047002.7,N
1646014895.8,286047000.2,N
1646014915.7,286047000.2,N
1646014935.5,286046999.8,N
1646014955.4,286047000.4,N
1646014975.2,286047000.5,N
1646014995.0,286046999.9,N
1646014995.9,286046999.9,N
1646015015.8,286047002.4,N
1646015035.6,286047002.3,N
1646015055.4,286047000.5,N
1646015075.3,286047001.5,N
1646015095.1,286047000.0,N
1646015115.9,286047000.9,N
1646015135.7,286046998.1,N
1646015155.5,286046999.9,N
1646015175.4,286047002.7,N
1646015195.2,286047000.6,N
1646015215.0,286047002.4,N
1646015216.0,286047002.4,N
1646015235.8,286046999.9,N
1646015255.6,286047000.3,N
1646015275.5,286047002.0,N
1646015295.3,286047002.8,N
1646015315.1,286047000.1,N
1646015335.9,286047002.0,N
1646015355.7,286047004.3,Y
1646015375.6,286047002.6,P
1646015395.4,286047001.3,N
1646015415.2,286047002.3,N
1646015435.1,286047001.6,N
1646015436.0,286047001.6,N
1646015455.8,286047001.6,N
1646015475.6,286047002.1,Y
1646015495.5,286047000.0,P
1646015515.3,286047002.8,P
1646015535.2,286047001.0,N
1646015585.9,286046999.2,E
1646015595.8,286046999.5,N
1646015615.7,286046997.0,P
1646015635.5,286046999.2,N
1646015655.4,286046999.1,N
1646015675.2,286046999.5,N
1646015695.0,286046997.3,N
1646015695.9,286046997.3,N
1646015715.8,286046997.5,N
1646015735.6,286046997.9,N
1646015755.5,286046997.1,N
1646015775.3,286046997.6,N
1646015795.1,286046995.3,Y
1646015815.9,286046999.2,P
1646015835.7,286046997.1,P
1646015855.6,286046997.0,P
1646015875.4,286046999.0,N
1646015895.2,286046996.8,Y
1646015915.1,286047000.2,P
1646015916.0,286047000.2,N
1646015935.8,286047001.0,N
1646015955.6,286047000.5,N
1646015975.5,286046998.6,N
1646015995.3,286046998.6,N
1646016015.2,286047000.8,N
1646016035.9,286046998.5,N
1646016055.7,286046999.1,N
1646016075.6,286046999.6,N
1646016095.4,286046996.6,Y
1646016115.2,286046996.6,P
1646016135.1,286046998.5,N
1646016136.0,286046998.5,N
1646016155.8,286047001.1,N
1646016175.7,286046998.9,N
1646016195.5,286046998.2,N
1646016215.3,286046996.7,N
1646016235.2,286046997.4,N
1646016255.0,286046996.5,N
1646016255.9,286046996.5,N
1646016275.7,286046996.7,N
1646016295.6,286046997.0,N
1646016315.4,286046999.3,N
1646016335.3,286046998.6,N
1646016355.1,286046996.9,N
1646016375.8,286046997.4,N
1646016395.7,286046997.6,N
1646016415.5,286046997.2,N
1646016435.4,286046997.9,N
1646016455.2,286046995.1,Y
1646016475.0,286046998.5,P
1646016475.9,286046998.5,P
1646016495.8,286047000.2,N
1646016515.6,286047000.8,N
1646016535.5,286046998.2,N
1646016555.3,286046999.3,N
1646016575.1,286046998.3,N
1646016595.9,286046998.4,N
1646016615.7,286046998.3,N
1646016635.5,286046998.3,N
1646016655.4,286046999.3,N
1646016675.2,286046998.7,N
1646016695.1,286046998.3,N
1646016696.0,286046998.3,N
1646016715.8,286046999.4,N
1646016735.6,286046999.6,N
1646016755.5,286046999.5,N
1646016775.6,286046997.3,Y
1646016795.4,286046997.0,P
1646016815.2,286046999.3,N
1646016835.1,286046999.6,N
1646016836.0,286046999.6,N
1646016855.8,286046996.7,Y
1646016875.7,286046998.7,P
1646016895.5,286047000.6,P
1646016915.3,286047000.6,N
1646016935.2,286046999.9,N
1646016955.0,286047002.4,N
1646016955.9,286047002.4,N
1646016975.7,286047000.1,N
1646016995.6,286047000.6,N
1646017015.4,286046998.2,N
1646017035.3,286046998.6,N
1646017055.1,286046999.4,N
1646017056.0,286046999.4,N
1646017075.8,286046998.8,N
1646017095.7,286046998.3,N
1646017115.5,286046998.2,N
1646017135.3,286046996.7,N
1646017155.2,286046998.7,N
1646017175.0,286046997.3,N
1646017175.9,286046997.3,N
1646017195.8,286046997.3,N
